Change the Weather History Date:

Saturday, March 30, 2013

  Actual Average Record
Temperature  
Mean Temperature 78 °F -  
Max Temperature 86 °F 84 °F 87 °F (1997)
Min Temperature 69 °F 68 °F 64 °F (2004)
Cooling Degree Days 12    
Growing Degree Days 28 (Base 50)    
Moisture  
Dew Point 68 °F    
Average Humidity 72    
Maximum Humidity 88    
Minimum Humidity 55    
Precipitation  
Precipitation 0.00 in - - ()
Sea Level Pressure  
Sea Level Pressure 30.06 in    
Wind  
Wind Speed 4 mph (East)    
Max Wind Speed 12 mph    
Max Gust Speed 17 mph    
Visibility 9 miles    
Events Rain    
Averages and records for this station are not official NWS values.
T = Trace of Precipitation, MM = Missing Value Source: NWS Daily Summary

Daily Weather History Graph

Daily Weather History Graph

Search for Another Location

Airport or City:

Trip Planner

Search our weather history database for the weather conditions in past years. The results will help you decide how hot, cold, wet, or windy it might be!

Date:

Astronomy

Mar. 30, 2013 Rise Set
Actual Time 6:22 AM AST 6:39 PM AST
Civil Twilight 6:00 AM AST 7:01 PM AST
Nautical Twilight 5:34 AM AST 7:26 PM AST
Astronomical Twilight 5:09 AM AST 7:52 PM AST
Moon 10:07 PM AST (3/30) 8:45 AM AST (3/30)
Length of Visible Light 13h 00m
Length of Day
12h 17m
Waning Gibbous, 86% of the Moon is Illuminated
Mar 30
Waning Gibbous
Apr 3
Last Quarter
Apr 10
New
Apr 18
First Quarter
Apr 25
Full

Hourly Weather History & Observations

Time (AST) Temp. Heat Index Dew Point Humidity Pressure Visibility Wind Dir Wind Speed Gust Speed Precip Events Conditions
12:50 AM 75.2 °F - 66.2 °F 73% 30.07 in 8.0 mi Calm Calm - N/A   Scattered Clouds
1:50 AM 73.4 °F - 66.2 °F 78% 30.06 in 8.0 mi NE 5.8 mph - N/A   Scattered Clouds
2:50 AM 73.4 °F - 66.2 °F 78% 30.05 in 8.0 mi Calm Calm - N/A   Partly Cloudy
3:50 AM 73.4 °F - 66.2 °F 78% 30.04 in 8.0 mi East 5.8 mph - N/A   Partly Cloudy
4:50 AM 69.8 °F - 66.2 °F 88% 30.03 in 8.0 mi Calm Calm - N/A   Partly Cloudy
5:50 AM 69.8 °F - 66.2 °F 88% 30.03 in 8.0 mi Calm Calm - N/A   Partly Cloudy
6:50 AM 69.8 °F - 66.2 °F 88% 30.07 in 10.0 mi Calm Calm - N/A   Partly Cloudy
7:50 AM 77.0 °F - 66.2 °F 69% 30.08 in 10.0 mi Calm Calm - N/A   Partly Cloudy
8:50 AM 82.4 °F 85.4 °F 68.0 °F 62% 30.09 in 10.0 mi Calm Calm - N/A   Partly Cloudy
9:50 AM 86.0 °F 89.4 °F 68.0 °F 55% 30.09 in 10.0 mi ENE 9.2 mph - N/A   Partly Cloudy
10:50 AM 86.0 °F 89.4 °F 68.0 °F 55% 30.09 in 10.0 mi ESE 9.2 mph - N/A   Partly Cloudy
11:50 AM 86.0 °F 91.8 °F 71.6 °F 62% 30.06 in 10.0 mi SSE 11.5 mph - N/A   Partly Cloudy
12:50 PM 86.0 °F 91.8 °F 71.6 °F 62% 30.04 in 10.0 mi ESE 11.5 mph - N/A   Partly Cloudy
1:50 PM 86.0 °F 91.8 °F 71.6 °F 62% 30.02 in 10.0 mi SE 11.5 mph 17.3 mph N/A   Mostly Cloudy
4:50 PM 82.4 °F 86.3 °F 69.8 °F 66% 30.01 in 10.0 mi ENE 9.2 mph - N/A   Mostly Cloudy
5:50 PM 80.6 °F 83.9 °F 69.8 °F 70% 30.01 in 10.0 mi ENE 5.8 mph - N/A   Mostly Cloudy
7:50 PM 78.8 °F - 68.0 °F 69% 30.07 in 10.0 mi East 5.8 mph - N/A   Mostly Cloudy
8:50 PM 77.0 °F - 68.0 °F 74% 30.09 in 8.0 mi East 5.8 mph - N/A   Partly Cloudy
9:50 PM 77.0 °F - 68.0 °F 74% 30.09 in 8.0 mi ESE 5.8 mph - N/A   Scattered Clouds
10:50 PM 77.0 °F - 69.8 °F 78% 30.10 in 8.0 mi ESE 9.2 mph - N/A   Overcast
11:50 PM 75.2 °F - 69.8 °F 83% 30.10 in 8.0 mi East 5.8 mph - N/A Rain Light Rain